COSMOS 2527 (756)

Last updated on Sun Apr 05 2026 00:03:23 GMT+0000 (Coordinated Universal Time)

1 43508U 18053A 26093.94129545 -.00000002 00000+0 00000+0 0 9997 2 43508 65.5376 76.3822 0009211 248.0419 111.8465 2.13102059 60693
UTC large
Height (km)
Speed (km/s)
/
Latitude / Longitude
Inclination (degrees)
Orbital Period (minutes)
Azimuth
Elevation
Range (km)
Doppler Factor

Next 0 passes for location: London (51.5072 / 0.1276)

Sorry there are no passes over London.